FW9420 Weather Reports


time (UTC)temp
C
wind
direction
speed
KPH
gust
KPH
rain 1hr
cm
rain 24hr
cm
rain mn
cm
humidity
%
barometer
mb
20260906060842 17 287 4.8 6.4 0.00 0.00 0.00 70 1025.3
20260906060310 17 287 4.8 6.4 0.00 0.00 0.00 72 1025.2
20260906055818 17 287 3.2 4.8 0.00 0.00 0.00 73 1025.3
20260906055348 16 287 3.2 6.4 0.00 0.00 0.00 73 1025.3
20260906054815 16 287 3.2 4.8 0.00 0.00 0.00 74 1025.2
20260906054323 16 287 1.6 3.2 0.00 0.00 0.00 75 1025.2
20260906053811 16 287 0.0 0.0 0.00 0.00 0.00 76 1025.2
20260906053319 16 287 0.0 3.2 0.00 0.00 0.00 76 1025.2
20260906052812 15 287 0.0 4.8 0.00 0.00 0.00 76 1025.1
20260906052321 15 287 3.2 4.8 0.00 0.00 0.00 76 1025.1
20260906051828 15 287 3.2 4.8 0.00 0.00 0.00 76 1025.1
20260906051316 15 287 3.2 4.8 0.00 0.00 0.00 76 1025.1
20260906050825 15 287 1.6 6.4 0.00 0.00 0.00 76 1025.1
20260906050313 15 287 3.2 6.4 0.00 0.00 0.00 76 1025.0
20260906045821 15 287 1.6 8.0 0.00 0.00 0.00 75 1025.0
20260906045309 15 287 4.8 8.0 0.00 0.00 0.00 75 1025.0
20260906044818 15 287 4.8 6.4 0.00 0.00 0.00 75 1024.8
20260906044347 15 287 3.2 8.0 0.00 0.00 0.00 75 1024.9
20260906043815 16 287 4.8 8.0 0.00 0.00 0.00 74 1024.9
20260906043328 16 287 4.8 8.0 0.00 0.00 0.00 74 1024.8
20260906042838 16 287 3.2 6.4 0.00 0.00 0.00 74 1024.8
20260906042325 16 287 1.6 4.8 0.00 0.00 0.00 73 1024.8
20260906041813 16 287 3.2 4.8 0.00 0.00 0.00 73 1024.8
20260906041342 16 287 3.2 4.8 0.00 0.00 0.00 73 1024.7
20260906040830 16 287 3.2 6.4 0.00 0.00 0.00 73 1024.7
20260906040340 16 287 4.8 6.4 0.00 0.00 0.00 72 1024.8
20260906035828 16 287 3.2 4.8 0.00 0.00 0.00 72 1024.7
20260906035316 16 287 1.6 4.8 0.00 0.00 0.00 72 1024.7
20260906034824 16 287 1.6 6.4 0.00 0.00 0.00 71 1024.8
20260906034333 16 287 3.2 6.4 0.00 0.00 0.00 71 1024.6
20260906033818 16 287 3.2 6.4 0.00 0.00 0.00 70 1024.6
20260906033326 17 287 0.0 1.6 0.00 0.00 0.00 70 1024.6
20260906032818 17 287 0.0 3.2 0.00 0.00 0.00 71 1024.6
20260906032327 17 287 1.6 4.8 0.00 0.00 0.00 71 1024.5
20260906031815 17 287 3.2 4.8 0.00 0.00 0.00 70 1024.4
20260906031323 17 287 3.2 4.8 0.00 0.00 0.00 70 1024.3
20260906030812 17 287 3.2 4.8 0.00 0.00 0.00 70 1024.4
20260906030319 17 287 1.6 6.4 0.00 0.00 0.00 70 1024.4
20260906025827 17 287 4.8 6.4 0.00 0.00 0.00 70 1024.3
20260906025314 17 287 4.8 6.4 0.00 0.00 0.00 70 1024.4
20260906024822 17 287 4.8 6.4 0.00 0.00 0.00 70 1024.3
20260906024311 17 287 3.2 6.4 0.00 0.00 0.00 70 1024.2
20260906023819 17 287 3.2 6.4 0.00 0.00 0.00 70 1024.3
20260906023313 17 287 4.8 4.8 0.00 0.00 0.00 70 1024.3
20260906022821 17 287 3.2 8.0 0.00 0.00 0.00 70 1024.3
20260906022310 17 287 3.2 8.0 0.00 0.00 0.00 71 1024.4
20260906021818 17 287 3.2 6.4 0.00 0.00 0.00 70 1024.4
20260906021327 17 287 3.2 6.4 0.00 0.00 0.00 70 1024.5
20260906020815 17 287 4.8 8.0 0.00 0.00 0.00 70 1024.4
20260906020324 17 287 3.2 8.0 0.00 0.00 0.00 70 1024.3
20260906015813 17 287 3.2 6.4 0.00 0.00 0.00 69 1024.5
20260906015321 17 287 3.2 6.4 0.00 0.00 0.00 69 1024.4
20260906014814 17 287 3.2 4.8 0.00 0.00 0.00 69 1024.4
20260906014343 18 287 1.6 4.8 0.00 0.00 0.00 69 1024.3
20260906013831 18 287 1.6 3.2 0.00 0.00 0.00 68 1024.4
20260906013319 18 287 0.0 1.6 0.00 0.00 0.00 68 1024.4
20260906012827 18 287 0.0 3.2 0.00 0.00 0.00 68 1024.4
20260906012315 18 287 0.0 4.8 0.00 0.00 0.00 68 1024.5
20260906011825 18 287 3.2 4.8 0.00 0.00 0.00 68 1024.5
20260906011313 18 287 3.2 4.8 0.00 0.00 0.00 68 1024.4
20260906010822 18 287 1.6 4.8 0.00 0.00 0.00 67 1024.5
20260906010310 18 287 1.6 3.2 0.00 0.00 0.00 67 1024.5
20260906005839 18 287 1.6 4.8 0.00 0.00 0.00 66 1024.4
20260906005310 18 287 1.6 4.8 0.00 0.00 0.00 66 1024.4
20260906004818 18 287 1.6 3.2 0.00 0.00 0.00 66 1024.4
20260906004326 18 287 3.2 3.2 0.00 0.00 0.00 66 1024.4
20260906003835 18 287 1.6 3.2 0.00 0.00 0.00 66 1024.4
20260906003321 18 287 0.0 3.2 0.00 0.00 0.00 66 1024.4
20260906002810 18 287 1.6 4.8 0.00 0.00 0.00 66 1024.2
20260906002318 18 287 1.6 4.8 0.00 0.00 0.00 66 1024.3
20260906001827 18 287 1.6 4.8 0.00 0.00 0.00 67 1024.3
20260906001315 18 287 1.6 8.0 0.00 0.00 0.00 67 1024.4
20260906000823 18 287 4.8 8.0 0.00 0.00 0.00 67 1024.3
20260906000312 18 287 4.8 6.4 0.00 0.00 0.00 67 1024.3
20260905235820 18 287 3.2 8.0 0.00 0.00 0.00 66 1024.3
20260905235312 19 287 4.8 11.3 0.00 0.00 0.00 66 1024.3
20260905234822 19 287 6.4 11.3 0.00 0.00 0.00 66 1024.4
20260905234332 19 287 4.8 6.4 0.00 0.00 0.00 66 1024.2
20260905233839 19 287 4.8 6.4 0.00 0.00 0.00 65 1024.2
20260905233327 19 287 3.2 4.8 0.00 0.00 0.00 64 1024.2
20260905232815 19 287 3.2 4.8 0.00 0.00 0.00 64 1024.2
20260905232323 19 287 3.2 4.8 0.00 0.00 0.00 63 1024.2
20260905231812 20 287 1.6 4.8 0.00 0.00 0.00 63 1024.2
20260905231321 20 287 1.6 3.2 0.00 0.00 0.00 63 1024.2
20260905230828 20 287 1.6 3.2 0.00 0.00 0.00 63 1024.2
20260905230316 20 287 1.6 6.4 0.00 0.00 0.00 63 1024.2
20260905225809 20 287 3.2 6.4 0.00 0.00 0.00 62 1024.2
20260905225318 20 287 4.8 6.4 0.00 0.00 0.00 61 1024.3
20260905224827 20 287 3.2 6.4 0.00 0.00 0.00 61 1024.2
20260905224315 21 287 3.2 8.0 0.00 0.00 0.00 61 1024.2
20260905223824 21 287 4.8 12.9 0.00 0.00 0.00 60 1024.3
20260905223312 21 287 6.4 12.9 0.00 0.00 0.00 60 1024.2
20260905222821 21 287 9.7 12.9 0.00 0.00 0.00 60 1024.3
20260905222309 21 286 6.4 12.9 0.00 0.00 0.00 60 1024.3
20260905221817 21 286 9.7 12.9 0.00 0.00 0.00 60 1024.2
20260905221346 21 286 8.0 12.9 0.00 0.00 0.00 60 1024.2
20260905220813 21 286 8.0 12.9 0.00 0.00 0.00 59 1024.2
20260905220325 21 286 6.4 14.5 0.00 0.00 0.00 58 1024.1
20260905215813 21 286 4.8 14.5 0.00 0.00 0.00 57 1024.0
20260905215322 22 285 8.0 16.1 0.00 0.00 0.00 56 1024.1
20260905214809 22 284 6.4 16.1 0.00 0.00 0.00 56 1024.1
20260905214317 22 284 6.4 12.9 0.00 0.00 0.00 56 1024.1
20260905213845 22 284 4.8 12.9 0.00 0.00 0.00 55 1024.1
20260905213313 22 284 8.0 12.9 0.00 0.00 0.00 55 1024.1
20260905212821 22 284 6.4 12.9 0.00 0.00 0.00 55 1024.1
20260905212309 22 284 8.0 12.9 0.00 0.00 0.00 55 1024.0
20260905211818 22 284 6.4 11.3 0.00 0.00 0.00 55 1024.0
20260905211327 22 284 3.2 11.3 0.00 0.00 0.00 55 1024.0
20260905210815 23 284 6.4 12.9 0.00 0.00 0.00 55 1024.0
20260905210345 23 284 4.8 12.9 0.00 0.00 0.00 54 1023.9
20260905205816 23 284 6.4 14.5 0.00 0.00 0.00 54 1023.9
20260905205346 23 283 6.4 14.5 0.00 0.00 0.00 54 1023.9
20260905204835 23 281 8.0 14.5 0.00 0.00 0.00 54 1023.8
20260905204323 23 281 8.0 14.5 0.00 0.00 0.00 54 1023.8
20260905203811 23 280 6.4 14.5 0.00 0.00 0.00 54 1023.7
20260905203319 23 280 8.0 14.5 0.00 0.00 0.00 54 1023.8
20260905202827 23 279 8.0 16.1 0.00 0.00 0.00 53 1023.7
20260905202316 23 278 11.3 16.1 0.00 0.00 0.00 52 1023.7
20260905201825 23 278 9.7 16.1 0.00 0.00 0.00 51 1023.8
20260905201334 23 278 11.3 16.1 0.00 0.00 0.00 51 1023.8
20260905200841 24 277 9.7 17.7 0.00 0.00 0.00 51 1023.7
20260905200328 24 277 11.3 19.3 0.00 0.00 0.00 50 1023.7
20260905195820 25 276 11.3 19.3 0.00 0.00 0.00 49 1023.7
20260905195328 25 283 11.3 19.3 0.00 0.00 0.00 49 1023.7
20260905194817 25 283 12.9 19.3 0.00 0.00 0.00 48 1023.7
20260905194326 25 274 11.3 19.3 0.00 0.00 0.00 47 1023.7
20260905193835 25 297 9.7 16.1 0.00 0.00 0.00 47 1023.6
20260905193322 26 304 11.3 16.1 0.00 0.00 0.00 46 1023.6
20260905192852 26 306 11.3 16.1 0.00 0.00 0.00 46 1023.5
20260905192316 26 306 6.4 14.5 0.00 0.00 0.00 45 1023.5
20260905191825 26 306 11.3 16.1 0.00 0.00 0.00 45 1023.4
20260905191313 26 308 11.3 16.1 0.00 0.00 0.00 46 1023.3
20260905190821 26 309 8.0 17.7 0.00 0.00 0.00 45 1023.3
20260905190315 26 308 9.7 17.7 0.00 0.00 0.00 45 1023.3
20260905185824 26 309 9.7 16.1 0.00 0.00 0.00 45 1023.2
20260905185312 26 306 9.7 20.9 0.00 0.00 0.00 45 1023.1
20260905184820 26 306 12.9 20.9 0.00 0.00 0.00 45 1023.1
20260905184309 26 317 11.3 17.7 0.00 0.00 0.00 45 1023.1
20260905183817 26 282 8.0 16.1 0.00 0.00 0.00 44 1022.9
20260905183326 26 282 9.7 17.7 0.00 0.00 0.00 43 1023.1
20260905182815 26 280 9.7 17.7 0.00 0.00 0.00 43 1023.1
20260905182323 26 277 9.7 17.7 0.00 0.00 0.00 42 1023.1
20260905181831 26 279 9.7 16.1 0.00 0.00 0.00 42 1023.0
20260905181319 27 278 8.0 14.5 0.00 0.00 0.00 41 1022.9
20260905180811 27 275 9.7 14.5 0.00 0.00 0.00 40 1022.9
20260905180320 27 275 9.7 14.5 0.00 0.00 0.00 40 1022.8
20260905175848 27 273 8.0 16.1 0.00 0.00 0.00 39 1022.7
20260905175316 27 270 9.7 12.9 0.00 0.00 0.00 38 1022.8
20260905174825 27 270 8.0 14.5 0.00 0.00 0.00 38 1022.7
20260905174335 28 269 8.0 14.5 0.00 0.00 0.00 37 1022.6
20260905173822 28 269 9.7 14.5 0.00 0.00 0.00 37 1022.6
20260905173311 28 265 8.0 17.7 0.00 0.00 0.00 36 1022.4
20260905172820 28 267 9.7 16.1 0.00 0.00 0.00 35 1022.4
20260905172328 29 259 8.0 14.5 0.00 0.00 0.00 35 1022.4
20260905171821 29 259 4.8 11.3 0.00 0.00 0.00 34 1022.4
20260905171310 29 259 4.8 11.3 0.00 0.00 0.00 33 1022.4
20260905170818 30 261 8.0 17.7 0.00 0.00 0.00 32 1022.4
20260905170348 30 263 11.3 17.7 0.00 0.00 0.00 32 1022.5
20260905165815 30 255 8.0 16.1 0.00 0.00 0.00 31 1022.4
20260905165324 30 254 8.0 16.1 0.00 0.00 0.00 31 1022.4
20260905164813 30 258 9.7 19.3 0.00 0.00 0.00 30 1022.4
20260905164322 30 259 9.7 20.9 0.00 0.00 0.00 30 1022.4
20260905163810 30 257 9.7 22.5 0.00 0.00 0.00 29 1022.4
20260905163340 30 265 12.9 22.5 0.00 0.00 0.00 28 1022.4
20260905162827 30 274 11.3 22.5 0.00 0.00 0.00 28 1022.5
20260905162336 30 269 8.0 20.9 0.00 0.00 0.00 28 1022.5
20260905161827 31 272 12.9 24.1 0.00 0.00 0.00 27 1022.5
20260905161315 31 271 11.3 29.0 0.00 0.00 0.00 27 1022.4
20260905160823 31 274 14.5 29.0 0.00 0.00 0.00 27 1022.3
20260905160313 31 275 12.9 25.7 0.00 0.00 0.00 26 1022.3
20260905155821 31 265 12.9 27.4 0.00 0.00 0.00 26 1022.3
20260905155309 31 284 14.5 27.4 0.00 0.00 0.00 26 1022.3
20260905154817 31 265 11.3 22.5 0.00 0.00 0.00 26 1022.4
20260905154347 31 267 8.0 29.0 0.00 0.00 0.00 26 1022.3
20260905153814 31 293 14.5 29.0 0.00 0.00 0.00 26 1022.2
20260905153321 31 277 17.7 27.4 0.00 0.00 0.00 25 1022.2
20260905152814 31 261 16.1 25.7 0.00 0.00 0.00 25 1022.2
20260905152323 31 263 11.3 27.4 0.00 0.00 0.00 25 1022.2
20260905151811 31 266 19.3 27.4 0.00 0.00 0.00 25 1022.2
20260905151320 31 284 16.1 27.4 0.00 0.00 0.00 25 1022.0
20260905150849 32 248 9.7 25.7 0.00 0.00 0.00 24 1022.1
20260905150318 32 275 17.7 27.4 0.00 0.00 0.00 24 1022.2
20260905145826 32 234 14.5 27.4 0.00 0.00 0.00 24 1022.2
20260905145334 32 235 14.5 24.1 0.00 0.00 0.00 24 1022.2
20260905144821 32 245 9.7 29.0 0.00 0.00 0.00 24 1022.3
20260905144310 32 243 19.3 29.0 0.00 0.00 0.00 23 1022.3
20260905143839 32 246 12.9 25.7 0.00 0.00 0.00 24 1022.3
20260905143311 32 242 11.3 30.6 0.00 0.00 0.00 24 1022.3
20260905142820 32 269 17.7 30.6 0.00 0.00 0.00 24 1022.3
20260905142348 32 281 19.3 30.6 0.00 0.00 0.00 24 1022.3
20260905141815 32 258 16.1 25.7 0.00 0.00 0.00 25 1022.3
20260905141323 32 242 11.3 25.7 0.00 0.00 0.00 24 1022.3
20260905140811 32 284 17.7 27.4 0.00 0.00 0.00 24 1022.3
20260905140320 33 270 17.7 27.4 0.00 0.00 0.00 25 1022.3
20260905135828 33 317 11.3 24.1 0.00 0.00 0.00 25 1022.2
20260905135317 32 271 12.9 30.6 0.00 0.00 0.00 25 1022.3
20260905134825 33 238 17.7 30.6 0.00 0.00 0.00 25 1022.4
20260905134313 32 286 16.1 30.6 0.00 0.00 0.00 25 1022.3
20260905133825 32 261 16.1 32.2 0.00 0.00 0.00 25 1022.2
20260905133314 32 290 14.5 32.2 0.00 0.00 0.00 26 1022.2
20260905132822 33 268 14.5 29.0 0.00 0.00 0.00 26 1022.3
20260905132310 33 275 12.9 29.0 0.00 0.00 0.00 25 1022.4
20260905131840 32 254 9.7 29.0 0.00 0.00 0.00 26 1022.3
20260905131327 32 279 14.5 29.0 0.00 0.00 0.00 26 1022.4
20260905130815 32 225 16.1 29.0 0.00 0.00 0.00 29 1022.3
20260905130324 32 229 17.7 29.0 0.00 0.00 0.00 28 1022.4
20260905125833 33 242 14.5 24.1 0.00 0.00 0.00 28 1022.4
20260905125321 33 198 8.0 27.4 0.00 0.00 0.00 28 1022.6
20260905124810 33 248 16.1 27.4 0.00 0.00 0.00 28 1022.6
20260905124323 33 239 4.8 25.7 0.00 0.00 0.00 28 1022.6
20260905123811 33 217 8.0 27.4 0.00 0.00 0.00 29 1022.5
20260905123318 33 237 11.3 20.9 0.00 0.00 0.00 28 1022.5
20260905122827 32 223 9.7 25.7 0.00 0.00 0.00 28 1022.6
20260905122315 32 203 12.9 27.4 0.00 0.00 0.00 28 1022.7
20260905121822 32 238 14.5 27.4 0.00 0.00 0.00 29 1022.8
20260905121311 32 211 16.1 30.6 0.00 0.00 0.00 29 1022.9
20260905120819 32 224 11.3 30.6 0.00 0.00 0.00 29 1022.8
20260905120308 32 240 11.3 22.5 0.00 0.00 0.00 28 1022.8
20260905115821 32 225 11.3 24.1 0.00 0.00 0.00 29 1022.9
20260905115309 32 229 8.0 24.1 0.00 0.00 0.00 29 1023.0
20260905114818 32 264 6.4 24.1 0.00 0.00 0.00 29 1023.0
20260905114326 32 265 12.9 25.7 0.00 0.00 0.00 30 1023.1
20260905113814 32 239 9.7 25.7 0.00 0.00 0.00 30 1023.2
20260905113324 32 278 14.5 25.7 0.00 0.00 0.00 30 1023.2
20260905112812 32 208 12.9 24.1 0.00 0.00 0.00 30 1023.2
20260905112321 32 244 14.5 24.1 0.00 0.00 0.00 31 1023.3
20260905111808 32 222 8.0 22.5 0.00 0.00 0.00 30 1023.2
20260905111321 32 257 6.4 27.4 0.00 0.00 0.00 30 1023.2
20260905110809 32 282 8.0 27.4 0.00 0.00 0.00 30 1023.1
20260905110339 32 267 14.5 22.5 0.00 0.00 0.00 31 1023.1
20260905105827 32 281 9.7 24.1 0.00 0.00 0.00 30 1023.1
20260905105336 32 271 11.3 19.3 0.00 0.00 0.00 31 1023.1
20260905104822 32 284 8.0 22.5 0.00 0.00 0.00 30 1023.2
20260905104310 31 288 9.7 22.5 0.00 0.00 0.00 31 1023.1
20260905103840 32 265 9.7 20.9 0.00 0.00 0.00 30 1023.1
20260905103328 31 293 4.8 20.9 0.00 0.00 0.00 32 1023.1
20260905102816 31 296 12.9 20.9 0.00 0.00 0.00 32 1023.2
20260905102325 31 304 6.4 19.3 0.00 0.00 0.00 33 1023.2
20260905101817 31 300 14.5 19.3 0.00 0.00 0.00 33 1023.3
20260905101326 31 306 9.7 19.3 0.00 0.00 0.00 34 1023.3
20260905100835 31 311 12.9 19.3 0.00 0.00 0.00 34 1023.3
20260905100322 31 308 6.4 17.7 0.00 0.00 0.00 34 1023.3
20260905095811 30 310 9.7 22.5 0.00 0.00 0.00 35 1023.4
20260905095340 30 309 11.3 22.5 0.00 0.00 0.00 35 1023.5
20260905094827 30 284 11.3 17.7 0.00 0.00 0.00 34 1023.5
20260905094315 30 290 9.7 19.3 0.00 0.00 0.00 35 1023.6
20260905093824 30 286 8.0 19.3 0.00 0.00 0.00 36 1023.6
20260905093313 30 293 9.7 19.3 0.00 0.00 0.00 37 1023.7
20260905092821 30 284 9.7 14.5 0.00 0.00 0.00 37 1023.7
20260905092313 29 283 6.4 14.5 0.00 0.00 0.00 38 1023.7
20260905091822 29 284 6.4 12.9 0.00 0.00 0.00 38 1023.8
20260905091310 28 284 4.8 11.3 0.00 0.00 0.00 41 1023.7
20260905090819 28 284 4.8 11.3 0.00 0.00 0.00 43 1023.8
20260905090347 28 284 1.6 4.8 0.00 0.00 0.00 44 1023.9
20260905085815 27 284 1.6 4.8 0.00 0.00 0.00 46 1024.0
20260905085323 26 284 3.2 4.8 0.00 0.00 0.00 47 1023.9
20260905084811 26 284 1.6 3.2 0.00 0.00 0.00 48 1023.9
20260905084319 26 284 1.6 8.0 0.00 0.00 0.00 49 1024.0
20260905083828 26 284 3.2 8.0 0.00 0.00 0.00 49 1024.0
20260905083315 26 284 3.2 8.0 0.00 0.00 0.00 50 1024.1
20260905082823 25 284 3.2 8.0 0.00 0.00 0.00 50 1024.2
20260905082316 25 284 1.6 4.8 0.00 0.00 0.00 52 1024.1
20260905081823 24 284 1.6 6.4 0.00 0.00 0.00 53 1024.1
20260905081312 25 284 1.6 6.4 0.00 0.00 0.00 52 1024.1
20260905080820 24 284 3.2 6.4 0.00 0.00 0.00 53 1024.0
20260905080308 23 284 1.6 6.4 0.00 0.00 0.00 53 1024.0
20260905075838 23 284 3.2 6.4 0.00 0.00 0.00 53 1024.0
20260905075325 23 284 3.2 6.4 0.00 0.00 0.00 56 1024.0
20260905074813 23 284 3.2 6.4 0.00 0.00 0.00 53 1024.0
20260905074321 23 284 1.6 4.8 0.00 0.00 0.00 55 1024.0
20260905073831 23 284 1.6 3.2 0.00 0.00 0.00 55 1024.0
20260905073340 22 284 1.6 3.2 0.00 0.00 0.00 57 1024.1
20260905072847 22 284 1.6 4.8 0.00 0.00 0.00 58 1024.1
20260905072314 21 284 3.2 4.8 0.00 0.00 0.00 60 1024.1
20260905071827 21 284 1.6 6.4 0.00 0.00 0.00 61 1024.2
20260905071336 21 284 1.6 6.4 0.00 0.00 0.00 62 1024.3
20260905070824 20 284 3.2 6.4 0.00 0.00 0.00 62 1024.4
20260905070313 20 284 1.6 4.8 0.00 0.00 0.00 63 1024.3
20260905065820 20 284 3.2 4.8 0.00 0.00 0.00 63 1024.5
20260905065328 20 284 3.2 4.8 0.00 0.00 0.00 64 1024.5
20260905064817 20 284 1.6 4.8 0.00 0.00 0.00 65 1024.5
20260905064325 19 284 1.6 4.8 0.00 0.00 0.00 65 1024.5
20260905063813 19 284 1.6 4.8 0.00 0.00 0.00 66 1024.5
20260905063321 19 284 3.2 6.4 0.00 0.00 0.00 67 1024.4
20260905062809 18 284 1.6 6.4 0.00 0.00 0.00 68 1024.5
20260905062318 18 284 3.2 6.4 0.00 0.00 0.00 67 1024.4
20260905061811 18 284 4.8 6.4 0.00 0.00 0.00 68 1024.4
20260905061318 18 284 3.2 6.4 0.00 0.00 0.00 69 1024.4